Regional Weather Roundup
Issued by NWS Portland, ME

Current Version | Previous Version | Graphics & Text | Print | Product List | Glossary On
Versions: 1 2 3 4 5 6 7 8 9 10 11 12 13 14 15 16 17 18 19 20 21 22 23 24 25 26 27 28 29 30 31 32 33 34 35 36 37 38 39 40 41 42 43 44 45 46 47 48 49 50
000
ASUS41 KGYX 230110
RWRGYX
WEATHER ROUNDUP FOR MAINE AND NEW HAMPSHIRE
NATIONAL WEATHER SERVICE GRAY ME
800 PM EST WED NOV 22 2017

MEZ002-005-006-010-012-015-018-020-021-024-026-027-029-230200-
MAINE

CITY           SKY/WX    TMP DP  RH WIND       PRES   REMARKS
PORTLAND       CLOUDY    39  35  86 NW12      29.81S
SANFORD          N/A     38  35  89 NW9       29.84R
BAR HARBOR     LGT RAIN  40  39  97 N14G20    29.70F
WISCASSET      LGT RAIN  40  38  93 VRB6      29.79S
ROCKLAND       LGT RAIN  40  37  89 N9G22     29.73F
FRYEBURG       CLOUDY    35  33  92 CALM      29.84R
LEWISTONAUBURN CLOUDY    37  32  82 NW14G22   29.81S
AUGUSTA        LGT RAIN  37  36  96 NW10      29.80S
WATERVILLE     LGT RAIN  37  35  92 NW9       29.75F
BANGOR         LGT RAIN  38  36  92 N16       29.76F
GREENVILLE       N/A     32  32 100 NW20G30   29.75F
MILLINOCKET    LGT RAIN  34  34 100 NW3       29.79F FOG
HOULTON        LGT RAIN  35  35 100 N7        29.76F
PRESQUE ISLE   LGT SNOW  32  31  96 N5        29.80F FOG
FRENCHVILLE    LGT SNOW  31  30  96 N9        29.79F FOG
CARIBOU        LGT SNOW  34  32  92 CALM      29.78F FOG
$$

NHZ002-005-008-009-011-012-014-230200-
NEW HAMPSHIRE

CITY           SKY/WX    TMP DP  RH WIND       PRES   REMARKS
PORTSMOUTH     PTCLDY    38  32  79 W13       29.83R
ROCHESTER      CLEAR     37  31  78 NW16G23   29.83R
NASHUA         CLOUDY    39  32  76 NW9       29.90R
MANCHESTER     CLOUDY    38  31  76 NW10      29.88R
CONCORD        CLOUDY    37  31  78 NW8       29.89R
LACONIA        CLOUDY    36  30  79 VRB5      29.88R
PLYMOUTH       CLOUDY    37  26  66 NW14G22   29.91R
BERLIN         CLOUDY    34  30  85 VRB5      29.88S
WHITEFIELD     CLOUDY    33  29  85 W5        29.91S
JAFFREY        CLOUDY    37  30  75 VRB6G20   29.89R
KEENE          CLOUDY    37  30  75 NW10G18   29.93S
LEBANON        CLOUDY    37  28  70 NW6       29.95R
MT WASHINGTON  NOT AVBL
$$

VTZ005-007-008-230200-
VERMONT

CITY           SKY/WX    TMP DP  RH WIND       PRES   REMARKS
ST JOHNSBURY     N/A     33  29  85 MISG      29.94R
MONTPELIER     CLOUDY    30  28  92 NW12      30.00R
BURLINGTON     CLOUDY    34  24  67 N14       30.05R
$$

MAZ007-012-024-CTZ003-RIZ002-NYZ038-NYZ072-230200-
SOUTHERN NEW ENGLAND AND NY

CITY           SKY/WX    TMP DP  RH WIND       PRES   REMARKS
BOSTON         PTCLDY    40  31  70 NW21G33   29.87R
WORCESTER      CLOUDY    36  27  69 NW17G28   29.88R
NANTUCKET      CLOUDY    45  44  97 NW22G32   29.80R
PROVIDENCE     PTCLDY    41  32  70 NW13G24   29.90R
HARTFORD       MOCLDY    39  28  64 NW12      29.97R
ALBANY         MOCLDY    37  21  52 NW21G28   30.05R
NEW YORK CITY  CLEAR     42  27  55 NW24G30   30.04R
$$

ANZ081-ANZ082-ANZ150-NHZ014-MEZ023>029-230200-
COASTAL MARINE OBSERVATIONS

STATION/POSITION TIME  TEMP    WIND        PRES    WAVE
                       AIR SEA DIR/SP/G            HT/PER
                 (UTC) (F)     (DEG/KT/KT) (MB)    (FT/S)
MOUNT DESERT ROC 0100   45     330/ 32/ 36 1003.3F
MATINICUS ROCK   0000   45     350/ 35/ 37 1004.8F
ISLE OF SHOALS   0000   41     310/ 21/ 24 1009.3R
JEFFREYS LEDGE   0036      49                N/A     6/ 5
CASHES LEDGE BUO 2350   47 51              1004.9    3/ 6
GEORGES BANK BUO 2350   59 54               999.6   14/ 8
$$

.............KEY..............
   WCI - WIND CHILL
   TC  - TEMPERATURE IN CELSIUS
   VSB - VISIBILITY IN MILES
   HX  - HEAT INDEX
   FAIR- INDICATES FEW OR NO CLOUDS BELOW 12,000 FT, WITH NO
         SIGNIFICANT WEATHER AND/OR OBSTRUCTIONS TO VISIBILITY.






USA.gov is the U.S. government's official web portal to all federal, state and local government web resources and services.